TimeAKDT,TemperatureF,Dew PointF,Humidity,Sea Level PressureIn,VisibilityMPH,Wind Direction,Wind SpeedMPH,Gust SpeedMPH,PrecipitationIn,Events,Conditions,WindDirDegrees,DateUTC
12:22 AM,42.8,37.4,81,30.08,10.0,ENE,5.8,-,N/A,,Overcast,70,2011-10-14 08:22:00
12:54 AM,43.0,37.9,82,30.09,10.0,Variable,6.9,-,N/A,,Overcast,0,2011-10-14 08:54:00
1:16 AM,42.8,39.2,87,30.08,10.0,ENE,6.9,-,N/A,,Overcast,70,2011-10-14 09:16:00
1:35 AM,42.8,37.4,81,30.08,10.0,ENE,9.2,17.3,N/A,,Overcast,70,2011-10-14 09:35:00
1:54 AM,43.0,37.9,82,30.08,10.0,Variable,6.9,-,N/A,,Overcast,0,2011-10-14 09:54:00
2:09 AM,42.8,37.4,81,30.07,10.0,Variable,5.8,-,N/A,,Overcast,0,2011-10-14 10:09:00
2:38 AM,42.8,37.4,81,30.07,10.0,ENE,4.6,-,N/A,,Overcast,70,2011-10-14 10:38:00
3:54 AM,42.1,37.9,85,30.07,10.0,ENE,5.8,-,N/A,,Partly Cloudy,70,2011-10-14 11:54:00
4:34 AM,42.8,37.4,81,30.06,10.0,Calm,Calm,-,N/A,,Overcast,0,2011-10-14 12:34:00
4:54 AM,37.9,36.0,93,30.07,10.0,West,6.9,-,N/A,,Overcast,280,2011-10-14 12:54:00
5:04 AM,37.4,35.6,93,30.06,10.0,WNW,4.6,-,N/A,,Mostly Cloudy,290,2011-10-14 13:04:00
5:38 AM,37.4,35.6,93,30.06,10.0,WNW,6.9,-,N/A,,Overcast,290,2011-10-14 13:38:00
5:54 AM,37.0,36.0,96,30.07,10.0,WNW,8.1,-,N/A,,Overcast,290,2011-10-14 13:54:00
6:01 AM,37.4,35.6,93,30.06,10.0,WNW,8.1,-,N/A,,Overcast,300,2011-10-14 14:01:00
6:54 AM,36.0,36.0,100,30.06,10.0,WNW,8.1,-,N/A,,Partly Cloudy,300,2011-10-14 14:54:00
7:18 AM,37.4,35.6,93,30.06,10.0,WNW,6.9,-,N/A,,Overcast,300,2011-10-14 15:18:00
7:54 AM,37.0,36.0,96,30.06,10.0,WNW,8.1,-,N/A,,Overcast,300,2011-10-14 15:54:00
8:54 AM,37.0,36.0,96,30.05,10.0,WNW,9.2,-,N/A,,Overcast,290,2011-10-14 16:54:00
9:54 AM,37.9,36.0,93,30.05,10.0,West,9.2,-,N/A,,Overcast,280,2011-10-14 17:54:00
10:54 AM,39.9,37.0,89,30.05,10.0,West,3.5,-,N/A,,Overcast,270,2011-10-14 18:54:00
11:54 AM,44.1,39.0,82,30.04,10.0,East,4.6,-,N/A,,Overcast,90,2011-10-14 19:54:00
12:54 PM,45.0,39.0,80,30.04,10.0,Variable,4.6,-,N/A,,Overcast,0,2011-10-14 20:54:00
1:54 PM,46.0,39.9,79,30.03,10.0,ESE,9.2,17.3,N/A,,Overcast,110,2011-10-14 21:54:00
2:54 PM,46.0,39.9,79,30.02,10.0,ESE,11.5,24.2,N/A,,Overcast,120,2011-10-14 22:54:00
3:54 PM,45.0,39.0,80,30.00,10.0,ESE,12.7,23.0,N/A,,Overcast,110,2011-10-14 23:54:00
4:54 PM,45.0,39.9,82,29.99,10.0,ESE,11.5,21.9,N/A,,Overcast,110,2011-10-15 00:54:00
5:54 PM,44.1,39.0,82,29.98,10.0,ESE,12.7,21.9,N/A,,Overcast,110,2011-10-15 01:54:00
6:54 PM,44.1,39.0,82,29.97,10.0,East,9.2,16.1,N/A,,Overcast,100,2011-10-15 02:54:00
7:54 PM,44.1,39.0,82,29.97,10.0,Variable,6.9,26.5,N/A,,Overcast,0,2011-10-15 03:54:00
8:54 PM,44.1,39.0,82,29.97,10.0,ESE,10.4,23.0,N/A,,Overcast,110,2011-10-15 04:54:00
9:54 PM,44.1,39.0,82,29.96,10.0,East,13.8,26.5,N/A,,Overcast,90,2011-10-15 05:54:00
10:17 PM,44.6,39.2,81,29.95,10.0,ESE,12.7,25.3,N/A,,Overcast,120,2011-10-15 06:17:00
10:26 PM,44.6,39.2,81,29.95,10.0,ESE,16.1,28.8,N/A,,Overcast,110,2011-10-15 06:26:00
10:54 PM,44.1,39.0,82,29.96,10.0,East,12.7,21.9,N/A,,Overcast,90,2011-10-15 06:54:00
11:16 PM,44.6,39.2,81,29.94,10.0,ESE,12.7,24.2,N/A,,Overcast,110,2011-10-15 07:16:00
11:25 PM,44.6,39.2,81,29.94,10.0,East,15.0,27.6,N/A,,Overcast,90,2011-10-15 07:25:00
11:54 PM,44.1,39.0,82,29.96,10.0,East,11.5,21.9,0.00,Rain,Light Rain,100,2011-10-15 07:54:00